EW7114 Weather Reports


time (UTC)temp
F
wind
direction
speed
knots
gust
knots
rain 1hr
in
rain 24hr
in
rain mn
in
humidity
%
barometer
mb
20260831034014 64 182 0.0 3.5 0.00 0.11 0.02 1 1008.2
20260831033514 63 182 0.0 3.5 0.00 0.11 0.02 1 1008.3
20260831033024 63 182 0.0 0.9 0.00 0.11 0.02 1 1008.2
20260831032514 63 182 0.0 0.0 0.00 0.11 0.02 1 1008.1
20260831032013 63 182 0.0 4.3 0.00 0.11 0.02 1 1008.0
20260831031515 63 182 1.7 8.7 0.00 0.11 0.02 1 1008.0
20260831031013 63 147 6.1 8.7 0.00 0.11 0.02 1 1007.9
20260831030511 63 288 0.0 1.7 0.00 0.11 0.02 1 1007.7
20260831030008 63 288 0.0 4.3 0.00 0.11 0.02 1 1007.5
20260831025508 64 288 2.6 4.3 0.00 0.11 0.02 1 1007.5
20260831025007 64 288 0.0 3.5 0.00 0.11 0.02 1 1007.3
20260831024507 64 288 0.0 2.6 0.00 0.11 0.02 1 1007.2
20260831024006 64 288 0.0 2.6 0.00 0.11 0.02 1 1007.1
20260831023504 65 288 1.7 3.5 0.00 0.11 0.02 1 1006.9
20260831023002 65 288 2.6 4.3 0.00 0.11 0.02 1 1006.8
20260831022502 65 288 2.6 4.3 0.00 0.11 0.02 3 1006.7
20260831022059 66 288 1.7 3.5 0.00 0.11 0.02 9 1006.7
20260831021559 66 303 2.6 5.2 0.00 0.11 0.02 19 1006.6
20260831021057 67 303 2.6 7.0 0.00 0.11 0.02 27 1006.4
20260831020556 68 303 5.2 7.0 0.00 0.11 0.02 35 1006.3
20260831020108 69 293 4.3 7.0 0.00 0.11 0.02 43 1006.2
20260831015552 70 304 3.5 7.0 0.00 0.12 0.02 46 1006.2
20260831015050 70 329 3.5 7.0 0.00 0.12 0.02 48 1006.1
20260831014548 71 313 3.5 8.7 0.00 0.12 0.02 50 1006.1
20260831014048 71 325 4.3 10.4 0.00 0.12 0.02 51 1006.1
20260831013546 72 305 6.1 9.6 0.00 0.12 0.02 51 1006.1
20260831013044 73 336 6.1 10.4 0.00 0.12 0.02 52 1006.1
20260831012543 73 321 6.1 10.4 0.00 0.12 0.02 52 1006.1
20260831012042 73 345 6.1 10.4 0.00 0.12 0.02 52 1006.2
20260831011544 74 6 5.2 11.3 0.00 0.12 0.02 52 1006.2
20260831011038 74 345 6.1 11.3 0.00 0.12 0.02 52 1006.2
20260831010538 74 355 7.0 11.3 0.00 0.12 0.02 52 1006.2
20260831010036 74 317 7.0 12.2 0.00 0.12 0.02 52 1006.3
20260831005534 75 334 8.7 13.0 0.00 0.23 0.02 52 1006.3
20260831005032 75 328 8.7 13.0 0.00 0.23 0.02 52 1006.2
20260831004531 75 355 9.6 13.0 0.00 0.23 0.02 52 1006.2
20260831004029 75 350 7.8 12.2 0.00 0.23 0.02 51 1006.2
20260831003529 75 328 6.1 13.0 0.00 0.23 0.02 52 1006.1
20260831003033 75 355 8.7 13.9 0.00 0.23 0.02 52 1006.1
20260831002524 76 335 7.8 13.9 0.00 0.23 0.02 52 1006.0
20260831002022 76 311 9.6 13.9 0.00 0.23 0.02 51 1006.1
20260831001521 76 336 7.8 13.0 0.00 0.23 0.02 52 1006.1
20260831001025 76 359 9.6 13.0 0.00 0.23 0.02 51 1006.1
20260831000518 77 328 8.7 12.2 0.00 0.23 0.02 51 1006.2
20260831000020 77 319 7.8 12.2 0.00 0.23 0.02 50 1006.1
20260830235516 77 345 7.0 12.2 0.00 0.23 0.02 49 1006.2
20260830235014 77 350 8.7 12.2 0.00 0.23 0.02 49 1006.3
20260830234531 77 302 7.8 14.8 0.00 0.23 0.02 50 1006.3
20260830234010 77 313 9.6 14.8 0.00 0.23 0.02 49 1006.3
20260830233509 77 321 5.2 12.2 0.00 0.23 0.02 50 1006.3
20260830233008 77 350 8.7 13.0 0.00 0.23 0.02 51 1006.3
20260830232506 77 337 9.6 13.0 0.00 0.23 0.02 51 1006.3
20260830232005 76 14 6.1 13.0 0.00 0.23 0.02 52 1006.3
20260830231507 75 13 8.7 13.0 0.00 0.23 0.02 52 1006.1
20260830231002 75 355 8.7 13.0 0.00 0.23 0.02 52 1006.2
20260830230600 76 14 7.8 13.0 0.00 0.23 0.02 51 1006.3
20260830230059 77 350 7.0 11.3 0.00 0.23 0.02 51 1006.4
20260830225558 78 315 7.8 14.8 0.00 0.24 0.02 51 1006.4
20260830225056 78 308 8.7 14.8 0.00 0.24 0.02 50 1006.5
20260830224555 78 322 9.6 14.8 0.00 0.24 0.02 51 1006.4
20260830224053 78 338 7.8 13.0 0.00 0.24 0.02 50 1006.4
20260830223552 77 355 6.1 13.0 0.00 0.24 0.02 51 1006.5
20260830223050 77 340 7.8 11.3 0.00 0.24 0.02 51 1006.5
20260830222551 77 318 6.1 10.4 0.00 0.24 0.02 51 1006.6
20260830222047 77 330 6.1 10.4 0.00 0.24 0.02 51 1006.7
20260830221548 77 307 6.1 12.2 0.00 0.24 0.02 50 1006.8
20260830221044 78 327 7.0 12.2 0.00 0.24 0.02 51 1006.8
20260830220543 77 285 5.2 12.2 0.00 0.24 0.02 50 1006.8
20260830220047 77 279 7.8 12.2 0.00 0.24 0.02 50 1006.7
20260830215540 77 318 7.0 14.8 0.00 0.26 0.02 50 1006.7
20260830215041 77 317 9.6 14.8 0.00 0.26 0.02 51 1006.8
20260830214537 77 309 7.0 13.0 0.00 0.26 0.02 51 1006.7
20260830214035 76 305 8.7 13.9 0.00 0.26 0.02 51 1007.0
20260830213536 76 355 7.0 13.9 0.00 0.26 0.02 50 1007.0
20260830213036 77 350 7.0 12.2 0.00 0.26 0.02 50 1007.0
20260830212531 76 350 6.1 12.2 0.00 0.26 0.02 50 1007.0
20260830212031 75 345 8.7 12.2 0.00 0.26 0.02 51 1006.9
20260830211529 75 345 7.8 13.0 0.00 0.26 0.02 51 1006.9
20260830211031 76 10 8.7 13.0 0.00 0.26 0.02 51 1006.9
20260830210527 75 345 8.7 16.5 0.00 0.26 0.02 51 1007.0
20260830210024 76 20 13.0 16.5 0.00 0.26 0.02 50 1007.1
20260830205525 78 338 10.4 16.5 0.00 0.26 0.02 50 1007.3
20260830205021 79 336 5.2 16.5 0.00 0.26 0.02 45 1007.3
20260830204524 80 197 8.7 13.9 0.00 0.26 0.02 43 1007.3
20260830204018 79 209 9.6 13.9 0.00 0.26 0.02 42 1007.5
20260830203517 78 245 7.0 13.0 0.00 0.26 0.02 44 1007.5
20260830203015 78 234 3.5 16.5 0.00 0.26 0.02 44 1007.6
20260830202514 79 232 11.3 16.5 0.00 0.26 0.02 44 1007.7
20260830202013 78 207 2.6 12.2 0.00 0.26 0.02 46 1007.7
20260830201512 78 205 7.0 12.2 0.00 0.26 0.02 45 1007.9
20260830201009 77 129 4.3 10.4 0.00 0.26 0.02 50 1007.9
20260830200508 77 131 5.2 8.7 0.00 0.26 0.02 49 1008.0
20260830200007 77 203 2.6 8.7 0.00 0.26 0.02 49 1008.0
20260830195506 76 207 0.9 8.7 0.00 0.26 0.02 50 1008.1
20260830195003 76 120 4.3 8.7 0.00 0.26 0.02 50 1008.1
20260830194502 75 88 6.1 9.6 0.00 0.26 0.02 49 1008.1
20260830194102 75 101 3.5 11.3 0.00 0.26 0.02 50 1008.3
20260830193558 75 145 6.1 11.3 0.00 0.26 0.02 50 1008.4
20260830193057 76 98 7.0 10.4 0.00 0.26 0.02 50 1008.5
20260830192555 76 123 6.1 9.6 0.00 0.26 0.02 50 1008.6
20260830192054 76 172 5.2 10.4 0.00 0.26 0.02 50 1008.8
20260830191559 74 151 6.1 10.4 0.00 0.26 0.02 50 1008.8
20260830191054 74 82 6.1 12.2 0.00 0.26 0.02 50 1008.9
20260830190552 75 118 7.8 12.2 0.00 0.26 0.02 50 1009.0
20260830190100 75 110 6.1 12.2 0.00 0.26 0.02 48 1009.1
20260830185548 74 162 7.0 12.2 0.00 0.26 0.02 48 1009.2
20260830185046 74 116 7.8 12.2 0.00 0.26 0.02 49 1009.3
20260830184543 74 150 7.0 12.2 0.00 0.26 0.02 47 1009.3
20260830184042 73 106 8.7 12.2 0.00 0.26 0.02 40 1009.6
20260830183540 73 116 7.8 12.2 0.00 0.26 0.02 42 1009.7
20260830183041 73 147 8.7 11.3 0.00 0.26 0.02 42 1009.8
20260830182542 73 122 8.7 12.2 0.00 0.26 0.02 30 1009.9
20260830182039 73 145 7.8 12.2 0.00 0.26 0.02 19 1010.0
20260830181535 72 132 7.0 11.3 0.00 0.26 0.02 7 1010.0
20260830181034 72 116 8.7 12.2 0.00 0.26 0.02 1 1010.2
20260830180535 71 155 7.0 12.2 0.00 0.26 0.02 1 1010.2
20260830180031 71 130 7.8 13.0 0.00 0.26 0.02 1 1010.3
20260830175529 71 120 7.0 10.4 0.00 0.26 0.02 1 1010.2
20260830175028 71 128 7.0 10.4 0.00 0.26 0.02 1 1010.3
20260830174528 70 130 7.0 10.4 0.00 0.26 0.02 1 1010.2
20260830174025 70 139 7.0 10.4 0.00 0.26 0.02 1 1010.3
20260830173525 70 113 5.2 10.4 0.00 0.26 0.02 1 1010.4
20260830173021 70 144 6.1 10.4 0.00 0.26 0.02 1 1010.4
20260830172520 69 141 7.0 13.0 0.00 0.26 0.02 1 1010.4
20260830172018 69 144 7.0 13.0 0.00 0.26 0.02 1 1010.4
20260830171517 69 151 6.1 10.4 0.00 0.26 0.02 1 1010.4
20260830171016 69 133 7.0 10.4 0.00 0.26 0.02 1 1010.4
20260830170514 68 121 7.0 10.4 0.00 0.26 0.02 1 1010.4
20260830170032 68 113 6.1 10.4 0.00 0.26 0.02 1 1010.4
20260830165511 68 157 7.0 10.4 0.00 0.45 0.02 1 1010.4
20260830165010 68 147 7.0 10.4 0.00 0.45 0.02 1 1010.6
20260830164508 67 157 8.7 13.0 0.00 0.45 0.02 1 1010.4
20260830164008 67 168 6.1 13.0 0.00 0.45 0.02 1 1010.4
20260830163505 67 169 7.8 13.0 0.00 0.45 0.02 1 1010.3
20260830163006 67 147 7.8 10.4 0.00 0.45 0.02 1 1010.3
20260830162502 66 163 7.0 10.4 0.00 0.45 0.02 1 1010.3
20260830162002 66 140 5.2 8.7 0.00 0.45 0.02 1 1010.3
20260830161608 65 185 4.3 9.6 0.00 0.45 0.02 1 1010.2
20260830161057 64 158 5.2 9.6 0.00 0.45 0.02 1 1010.2
20260830160556 64 153 5.2 7.0 0.00 0.45 0.02 1 1010.2
20260830160105 63 160 3.5 6.1 0.00 0.45 0.02 1 1010.3
20260830155554 63 194 2.6 7.0 0.00 0.45 0.02 1 1010.3
20260830155052 62 174 3.5 7.8 0.00 0.45 0.02 1 1010.2
20260830154551 62 173 4.3 7.8 0.00 0.45 0.02 1 1010.1
20260830154049 61 158 5.2 7.8 0.00 0.45 0.02 1 1010.1
20260830153547 61 149 5.2 7.8 0.00 0.45 0.02 1 1010.2
20260830153046 61 143 4.3 7.0 0.00 0.45 0.02 1 1010.3
20260830152544 61 125 2.6 7.0 0.00 0.45 0.02 1 1010.3
20260830152042 61 163 2.6 7.0 0.00 0.45 0.02 1 1010.3
20260830151552 60 147 5.2 7.0 0.00 0.45 0.02 1 1010.2
20260830151040 60 143 5.2 7.8 0.00 0.45 0.02 1 1010.1
20260830150539 60 120 6.1 7.8 0.00 0.45 0.02 1 1010.0
20260830150038 59 127 4.3 7.0 0.00 0.45 0.02 1 1010.0
20260830145535 59 117 3.5 4.3 0.00 0.45 0.02 1 1010.0
20260830145036 59 147 3.5 5.2 0.00 0.45 0.02 1 1010.0
20260830144545 59 147 3.5 5.2 0.00 0.45 0.02 1 1010.0
20260830144031 59 147 0.0 1.7 0.01 0.45 0.02 1 1010.0
20260830143530 58 147 0.0 2.6 0.01 0.45 0.02 1 1010.0
20260830143030 58 147 0.9 6.1 0.01 0.45 0.02 1 1009.9
20260830142526 58 147 2.6 6.1 0.01 0.45 0.02 1 1009.8
20260830142026 58 150 3.5 6.1 0.01 0.45 0.02 1 1009.9
20260830141524 57 125 2.6 4.3 0.01 0.45 0.02 1 1009.9
20260830141022 56 163 1.7 2.6 0.01 0.45 0.02 1 1009.9
20260830140521 55 163 0.0 1.7 0.01 0.45 0.02 1 1010.0
20260830140026 55 163 0.0 3.5 0.01 0.45 0.02 1 1010.0
20260830135521 55 163 1.7 3.5 0.01 0.45 0.02 1 1009.9
20260830135017 55 163 2.6 3.5 0.01 0.45 0.02 1 1009.8
20260830134515 55 107 1.7 2.6 0.01 0.45 0.02 1 1009.7
20260830134013 55 107 0.0 2.6 0.00 0.44 0.01 1 1009.8
20260830133512 56 107 0.0 3.5 0.00 0.44 0.01 1 1009.8
20260830133023 56 107 1.7 3.5 0.00 0.44 0.01 1 1009.6
20260830132508 56 107 0.9 3.5 0.00 0.44 0.01 1 1009.6
20260830132008 56 107 1.7 3.5 0.00 0.44 0.01 1 1009.6
20260830131507 56 107 0.9 3.5 0.00 0.44 0.01 1 1009.6
20260830131007 56 107 1.7 6.1 0.00 0.44 0.01 1 1009.4
20260830130505 56 107 1.7 6.1 0.00 0.44 0.01 1 1009.3
20260830130003 56 111 3.5 6.1 0.00 0.44 0.01 1 1009.3
20260830125503 56 76 3.5 5.2 0.00 0.44 0.01 1 1009.2
20260830125100 56 256 0.9 3.5 0.00 0.44 0.01 1 1009.2
20260830124558 55 256 1.7 3.5 0.00 0.44 0.01 1 1009.1
20260830124057 56 256 0.0 2.6 0.00 0.44 0.01 1 1009.0
20260830123556 56 256 0.9 2.6 0.00 0.44 0.01 1 1008.8
20260830123054 56 256 0.0 0.0 0.00 0.44 0.01 1 1008.8
20260830122553 56 256 0.0 5.2 0.00 0.44 0.01 1 1008.8
20260830122050 56 256 0.0 6.1 0.00 0.44 0.01 1 1009.0
20260830121550 56 266 4.3 7.0 0.00 0.44 0.01 1 1009.1
20260830121047 56 277 2.6 7.0 0.00 0.44 0.01 1 1009.1
20260830120546 56 249 5.2 7.0 0.00 0.44 0.01 1 1009.4
20260830120045 56 283 2.6 7.8 0.00 0.44 0.01 1 1008.9
20260830115544 57 285 4.3 7.8 0.00 0.44 0.01 1 1009.0
20260830115042 58 252 5.2 7.0 0.00 0.44 0.01 1 1009.0
20260830114544 59 80 0.9 5.2 0.00 0.44 0.01 1 1008.9
20260830114039 59 80 1.7 5.2 0.00 0.44 0.01 1 1008.4
20260830113537 59 57 0.9 6.1 0.00 0.44 0.01 1 1008.6
20260830113036 59 57 1.7 9.6 0.00 0.44 0.01 1 1008.7
20260830112535 59 65 4.3 9.6 0.00 0.44 0.01 1 1008.7
20260830112033 58 71 5.2 7.8 0.00 0.44 0.01 1 1008.7
20260830111533 58 87 0.0 3.5 0.00 0.44 0.01 1 1008.9
20260830111030 58 164 1.7 3.5 0.00 0.44 0.01 1 1008.8
20260830110529 59 164 1.7 3.5 0.00 0.44 0.01 1 1008.8
20260830110028 59 164 0.9 7.8 0.00 0.44 0.01 1 1008.6
20260830105529 59 237 3.5 14.8 0.00 0.44 0.01 1 1008.8
20260830105024 58 274 7.0 15.6 0.00 0.44 0.01 1 1008.6
20260830104522 57 246 12.2 15.6 0.00 0.44 0.01 1 1009.7
20260830104024 56 221 4.3 8.7 0.00 0.44 0.01 1 1008.5
20260830103524 56 165 0.0 3.5 0.00 0.44 0.01 1 1008.1
20260830103029 56 165 2.6 3.5 0.00 0.44 0.01 1 1008.4
20260830102522 57 165 1.7 4.3 0.00 0.44 0.01 1 1008.4
20260830102017 57 165 3.5 5.2 0.00 0.44 0.01 1 1008.4
20260830101513 57 149 3.5 6.1 0.00 0.44 0.01 1 1008.3
20260830101012 56 172 2.6 5.2 0.00 0.44 0.01 1 1008.3
20260830100511 56 170 3.5 6.1 0.00 0.44 0.01 1 1008.4
20260830100010 56 203 4.3 7.0 0.00 0.44 0.01 1 1008.5
20260830095509 56 203 4.3 7.0 0.00 0.45 0.01 1 1008.4
20260830095007 56 217 3.5 6.1 0.00 0.45 0.01 1 1008.4
20260830094505 56 208 2.6 4.3 0.00 0.45 0.01 1 1008.2
20260830094005 57 208 0.0 1.7 0.00 0.45 0.01 1 1008.1
20260830093501 57 208 0.0 3.5 0.00 0.45 0.01 1 1007.9
20260830093001 57 208 0.0 4.3 0.00 0.45 0.01 1 1007.9
20260830092559 58 208 2.6 4.3 0.00 0.45 0.01 1 1007.9
20260830092058 58 208 0.9 2.6 0.00 0.45 0.01 1 1008.0
20260830091557 58 291 1.7 4.3 0.00 0.45 0.01 1 1008.1
20260830091055 58 159 2.6 4.3 0.00 0.45 0.01 1 1008.3
20260830090554 59 159 0.9 4.3 0.00 0.45 0.01 1 1008.4
20260830090053 60 159 2.6 7.0 0.00 0.45 0.01 1 1008.3
20260830085551 60 138 2.6 7.0 0.00 0.45 0.01 1 1008.2
20260830085049 60 121 3.5 7.8 0.00 0.45 0.01 1 1008.0
20260830084547 60 130 5.2 9.6 0.00 0.45 0.01 1 1008.0
20260830084046 60 110 6.1 10.4 0.00 0.45 0.01 1 1008.2
20260830083545 60 146 7.0 10.4 0.00 0.45 0.01 1 1008.2
20260830083043 60 127 4.3 8.7 0.00 0.45 0.01 1 1008.2
20260830082542 60 172 5.2 8.7 0.00 0.45 0.01 1 1008.6
20260830082039 60 178 5.2 11.3 0.00 0.45 0.01 1 1008.8
20260830081541 60 180 7.0 13.9 0.00 0.45 0.01 1 1008.8
20260830081037 60 199 10.4 13.9 0.00 0.45 0.01 1 1009.0
20260830080536 60 215 9.6 13.9 0.00 0.45 0.01 1 1008.9
20260830080511 60 205 9.6 13.9 0.00 0.45 0.01 1 1008.9
20260830080034 60 221 10.4 13.0 0.01 0.45 0.01 1 1008.8
20260830075533 60 219 9.6 13.9 0.01 0.45 0.01 1 1008.4
20260830075032 60 226 9.6 13.9 0.01 0.45 0.01 1 1008.5
20260830074529 60 180 5.2 10.4 0.01 0.45 0.01 1 1007.6
20260830074031 60 203 7.0 10.4 0.01 0.45 0.01 1 1007.9
20260830073526 60 172 7.8 10.4 0.01 0.45 0.01 1 1008.3
20260830073029 60 177 7.0 9.6 0.01 0.45 0.01 1 1008.1
20260830072526 60 182 7.0 10.4 0.01 0.45 0.01 1 1008.1
20260830072023 60 154 4.3 8.7 0.01 0.45 0.01 1 1008.1
20260830071522 61 144 5.2 13.9 0.01 0.45 0.01 1 1007.8
20260830071027 61 164 7.8 13.9 0.01 0.45 0.01 1 1007.8
20260830070520 61 165 6.1 10.4 0.01 0.45 0.01 1 1007.9
20260830070017 61 161 7.8 12.2 0.00 0.44 0.00 1 1008.8
20260830065516 61 166 8.7 13.0 0.00 0.44 0.00 1 1008.8
20260830065015 60 180 7.0 10.4 0.00 0.44 0.00 1 1008.8
20260830064513 61 201 8.7 10.4 0.00 0.44 0.00 1 1008.7
20260830064011 61 174 6.1 14.8 0.00 0.44 0.00 1 1008.2
20260830063510 61 160 8.7 20.0 0.00 0.44 0.00 1 1008.3
20260830063009 61 175 9.6 20.0 0.00 0.44 0.00 1 1008.5
20260830062507 61 188 11.3 14.8 0.00 0.44 0.00 1 1008.7
20260830062005 60 200 7.0 13.9 0.00 0.44 0.00 1 1008.1
20260830061505 60 197 8.7 13.9 0.00 0.44 0.00 1 1008.2
20260830061004 60 200 10.4 13.9 0.00 0.44 0.00 1 1008.0
20260830060502 60 209 8.7 12.2 0.00 0.44 0.00 1 1007.9
20260830055559 60 242 6.1 8.7 0.00 0.46 0.44 1 1007.8
20260830055058 60 219 3.5 11.3 0.00 0.46 0.44 1 1007.4
20260830054555 60 204 6.1 15.6 0.00 0.46 0.44 1 1008.0
20260830054053 60 190 7.0 15.6 0.01 0.46 0.44 1 1007.9
20260830053552 61 161 8.7 16.5 0.01 0.46 0.44 1 1007.8
20260830053052 61 168 8.7 17.4 0.02 0.46 0.44 1 1007.3
20260830052549 60 153 10.4 16.5 0.03 0.46 0.44 1 1006.9
20260830052048 60 128 8.7 13.0 0.04 0.46 0.44 1 1007.2
20260830051547 61 154 7.8 13.0 0.04 0.46 0.44 1 1007.5
20260830051045 61 151 8.7 13.0 0.05 0.46 0.44 1 1007.6
20260830050544 61 143 7.8 13.0 0.05 0.46 0.44 1 1007.5
20260830050044 61 124 9.6 13.0 0.06 0.46 0.44 1 1007.1
20260830045542 61 101 8.7 13.0 0.06 0.46 0.44 1 1007.2
20260830045039 61 103 8.7 17.4 0.07 0.46 0.44 1 1007.3
20260830044538 61 116 11.3 19.1 0.07 0.46 0.44 1 1007.8
20260830044036 61 144 13.0 25.2 0.07 0.45 0.43 1 1008.9
20260830043536 62 122 14.8 30.4 0.07 0.45 0.43 1 1008.0
20260830043033 61 120 17.4 33.0 0.06 0.44 0.42 1 1008.9
20260830042532 61 116 26.1 31.3 0.05 0.43 0.41 1 1007.8
20260830042034 61 128 14.8 22.6 0.04 0.42 0.40 1 1008.9
20260830041528 61 152 13.0 21.7 0.05 0.42 0.40 1 1009.1
20260830041027 61 153 14.8 19.1 0.04 0.41 0.39 1 1008.7
20260830040526 62 128 13.9 20.0 0.04 0.41 0.39 1 1008.2
20260830040024 62 127 15.6 20.0 0.03 0.40 0.38 1 1008.4
20260830035524 62 157 11.3 13.9 0.03 0.40 0.38 1 1008.7
20260830035022 62 132 7.8 14.8 0.02 0.39 0.37 1 1008.6
20260830034520 62 206 9.6 14.8 0.02 0.39 0.37 1 1008.9